TimeCST,TemperatureF,Dew PointF,Humidity,Sea Level PressureIn,VisibilityMPH,Wind Direction,Wind SpeedMPH,Gust SpeedMPH,PrecipitationIn,Events,Conditions,WindDirDegrees,DateUTC
12:11 AM,19.4,15.8,86,30.35,10.0,NW,16.1,-,N/A,,Overcast,320,2013-03-06 06:11:00
12:31 AM,19.4,15.8,86,30.35,10.0,NW,11.5,-,N/A,,Overcast,320,2013-03-06 06:31:00
12:51 AM,17.6,15.8,93,30.36,10.0,NW,13.8,-,N/A,,Scattered Clouds,320,2013-03-06 06:51:00
1:11 AM,15.8,12.2,86,30.36,10.0,NW,10.4,-,N/A,,Clear,320,2013-03-06 07:11:00
1:31 AM,15.8,12.2,86,30.37,10.0,NW,9.2,-,N/A,,Clear,320,2013-03-06 07:31:00
1:51 AM,15.8,14.0,93,30.37,10.0,NW,11.5,-,N/A,,Mostly Cloudy,320,2013-03-06 07:51:00
2:11 AM,17.6,15.8,93,30.37,10.0,NW,10.4,-,N/A,,Overcast,320,2013-03-06 08:11:00
2:31 AM,17.6,15.8,93,30.36,10.0,NW,10.4,-,N/A,,Overcast,320,2013-03-06 08:31:00
2:51 AM,17.6,15.8,93,30.36,10.0,NW,10.4,-,N/A,,Overcast,320,2013-03-06 08:51:00
3:11 AM,17.6,15.8,93,30.36,10.0,NW,11.5,-,N/A,,Overcast,320,2013-03-06 09:11:00
3:51 AM,19.4,15.8,86,30.37,10.0,NW,9.2,-,N/A,,Overcast,320,2013-03-06 09:51:00
4:11 AM,19.4,15.8,86,30.37,10.0,NW,8.1,-,N/A,,Overcast,320,2013-03-06 10:11:00
4:31 AM,17.6,15.8,93,30.37,10.0,NW,9.2,-,N/A,,Overcast,320,2013-03-06 10:31:00
4:51 AM,17.6,15.8,93,30.38,10.0,NW,10.4,-,N/A,,Overcast,320,2013-03-06 10:51:00
5:51 AM,17.6,15.8,93,30.39,10.0,NW,9.2,-,N/A,,Overcast,320,2013-03-06 11:51:00
6:31 AM,17.6,15.8,93,30.39,10.0,NNW,10.4,-,N/A,,Overcast,330,2013-03-06 12:31:00
6:51 AM,17.6,15.8,93,30.40,10.0,NNW,9.2,-,N/A,Snow,Light Snow,330,2013-03-06 12:51:00
7:11 AM,17.6,15.8,93,30.40,10.0,NNW,6.9,-,N/A,Snow,Light Snow,340,2013-03-06 13:11:00
7:31 AM,17.6,14.0,86,30.40,5.0,NNW,6.9,-,N/A,Snow,Light Snow,340,2013-03-06 13:31:00
7:51 AM,19.4,15.8,86,30.41,4.0,NNW,8.1,-,N/A,Snow,Light Snow,340,2013-03-06 13:51:00
8:11 AM,19.4,15.8,86,30.41,5.0,NNW,8.1,-,N/A,Snow,Light Snow,340,2013-03-06 14:11:00
8:31 AM,19.4,15.8,86,30.41,5.0,NNW,6.9,-,N/A,Snow,Light Snow,340,2013-03-06 14:31:00
8:51 AM,19.4,15.8,86,30.41,5.0,NNW,8.1,-,N/A,Snow,Light Snow,340,2013-03-06 14:51:00
9:11 AM,19.4,15.8,86,30.41,5.0,North,8.1,-,N/A,Snow,Light Snow,350,2013-03-06 15:11:00
9:31 AM,19.4,15.8,86,30.40,5.0,North,9.2,-,N/A,Snow,Light Snow,360,2013-03-06 15:31:00
9:51 AM,21.2,15.8,80,30.41,5.0,North,8.1,-,N/A,Snow,Light Snow,350,2013-03-06 15:51:00
10:11 AM,21.2,15.8,80,30.41,5.0,North,5.8,-,N/A,Snow,Light Snow,350,2013-03-06 16:11:00
10:31 AM,21.2,15.8,80,30.40,7.0,NNW,5.8,-,N/A,Snow,Light Snow,340,2013-03-06 16:31:00
10:51 AM,21.2,15.8,80,30.39,4.0,North,5.8,-,N/A,Snow,Light Snow,350,2013-03-06 16:51:00
11:11 AM,23.0,15.8,74,30.39,5.0,NNW,6.9,-,N/A,Snow,Light Snow,340,2013-03-06 17:11:00
11:31 AM,21.2,15.8,80,30.39,5.0,North,4.6,-,N/A,Snow,Light Snow,10,2013-03-06 17:31:00
11:51 AM,23.0,15.8,74,30.38,7.0,NNE,5.8,-,N/A,Snow,Light Snow,20,2013-03-06 17:51:00
12:11 PM,23.0,15.8,74,30.38,7.0,North,3.5,-,N/A,Snow,Light Snow,10,2013-03-06 18:11:00
12:31 PM,23.0,15.8,74,30.37,7.0,NNW,4.6,-,N/A,Snow,Light Snow,340,2013-03-06 18:31:00
12:51 PM,23.0,15.8,74,30.37,5.0,Calm,Calm,-,N/A,Snow,Light Snow,0,2013-03-06 18:51:00
1:11 PM,23.0,15.8,74,30.37,5.0,North,3.5,-,N/A,Snow,Light Snow,360,2013-03-06 19:11:00
1:31 PM,24.8,15.8,69,30.36,5.0,Calm,Calm,-,N/A,Snow,Light Snow,0,2013-03-06 19:31:00
1:51 PM,23.0,15.8,74,30.35,4.0,Calm,Calm,-,N/A,Snow,Light Snow,0,2013-03-06 19:51:00
2:11 PM,24.8,15.8,69,30.35,2.5,Calm,Calm,-,N/A,Snow,Light Snow,0,2013-03-06 20:11:00
2:31 PM,24.8,15.8,69,30.34,7.0,Calm,Calm,-,N/A,Snow,Light Snow,0,2013-03-06 20:31:00
2:51 PM,23.0,15.8,74,30.34,7.0,Calm,Calm,-,N/A,Snow,Light Snow,0,2013-03-06 20:51:00
3:11 PM,23.0,15.8,74,30.33,5.0,Calm,Calm,-,N/A,Snow,Light Snow,0,2013-03-06 21:11:00
3:31 PM,23.0,15.8,74,30.33,7.0,Calm,Calm,-,N/A,Snow,Light Snow,0,2013-03-06 21:31:00
3:51 PM,23.0,15.8,74,30.33,10.0,Calm,Calm,-,N/A,,Overcast,0,2013-03-06 21:51:00
4:11 PM,21.2,15.8,80,30.33,10.0,SSE,3.5,-,N/A,,Overcast,160,2013-03-06 22:11:00
4:31 PM,21.2,15.8,80,30.33,10.0,SSE,4.6,-,N/A,,Overcast,160,2013-03-06 22:31:00
4:51 PM,21.2,15.8,80,30.33,10.0,SSE,6.9,-,N/A,,Overcast,160,2013-03-06 22:51:00
5:11 PM,21.2,15.8,80,30.33,10.0,SSE,5.8,-,N/A,,Overcast,150,2013-03-06 23:11:00
5:31 PM,19.4,15.8,86,30.32,7.0,SE,5.8,-,N/A,Snow,Light Snow,140,2013-03-06 23:31:00
5:51 PM,19.4,14.0,80,30.31,10.0,ESE,4.6,-,N/A,,Overcast,110,2013-03-06 23:51:00
6:11 PM,19.4,14.0,80,30.31,10.0,ESE,4.6,-,N/A,,Overcast,120,2013-03-07 00:11:00
6:31 PM,19.4,14.0,80,30.31,10.0,SE,4.6,-,N/A,,Overcast,130,2013-03-07 00:31:00
6:51 PM,17.6,14.0,86,30.30,10.0,SE,5.8,-,N/A,,Overcast,130,2013-03-07 00:51:00
7:11 PM,17.6,12.2,79,30.31,10.0,SSE,6.9,-,N/A,,Overcast,150,2013-03-07 01:11:00
7:31 PM,17.6,14.0,86,30.30,10.0,SE,8.1,-,N/A,,Overcast,130,2013-03-07 01:31:00
7:51 PM,17.6,14.0,86,30.29,10.0,SE,8.1,-,N/A,,Overcast,130,2013-03-07 01:51:00
8:11 PM,17.6,14.0,86,30.29,10.0,SE,8.1,-,N/A,,Overcast,130,2013-03-07 02:11:00
8:31 PM,17.6,12.2,79,30.30,10.0,SSE,9.2,-,N/A,,Overcast,150,2013-03-07 02:31:00
8:51 PM,17.6,12.2,79,30.30,10.0,SE,9.2,-,N/A,,Overcast,140,2013-03-07 02:51:00
9:11 PM,17.6,14.0,86,30.30,10.0,SE,9.2,-,N/A,,Overcast,140,2013-03-07 03:11:00
9:31 PM,17.6,14.0,86,30.31,10.0,SSE,11.5,-,N/A,,Overcast,160,2013-03-07 03:31:00
9:51 PM,17.6,14.0,86,30.32,10.0,SSE,6.9,-,N/A,,Overcast,160,2013-03-07 03:51:00
10:11 PM,17.6,14.0,86,30.32,10.0,SSE,5.8,-,N/A,,Overcast,160,2013-03-07 04:11:00
10:31 PM,17.6,14.0,86,30.31,10.0,SE,8.1,-,N/A,,Overcast,140,2013-03-07 04:31:00
10:51 PM,17.6,14.0,86,30.31,10.0,SE,6.9,-,N/A,,Overcast,140,2013-03-07 04:51:00
11:11 PM,17.6,14.0,86,30.30,10.0,SSE,8.1,-,N/A,,Overcast,150,2013-03-07 05:11:00
11:31 PM,15.8,12.2,86,30.29,10.0,SSE,8.1,-,N/A,,Overcast,150,2013-03-07 05:31:00
11:51 PM,17.6,14.0,86,30.30,10.0,SSE,10.4,-,N/A,,Overcast,160,2013-03-07 05:51:00